Regional Weather Roundup
Issued by NWS Cleveland, OH

Home | Current Version | Previous Version | Text Only | Print | Product List | Glossary Off
Versions: 1 2 3 4 5 6 7 8 9 10 11 12 13 14 15 16 17 18 19 20 21 22 23 24 25 26 27 28 29 30 31 32 33 34 35 36 37 38 39 40 41 42 43 44 45 46 47 48 49 50

000
ASUS41 KCLE 302000
RWRCLE
OHIO REGIONAL WEATHER ROUNDUP
NATIONAL WEATHER SERVICE WILMINGTON, OH
300 PM EST FRI JAN 30 2015

NOTE: "FAIR" INDICATES FEW OR NO CLOUDS BELOW 12,000 FEET WITH NO
SIGNIFICANT WEATHER AND/OR OBSTRUCTIONS TO VISIBILITY.

OHZ001>008-015>018-024>027-034-035-043-044-302100-
   NORTHWEST OHIO

CITY           SKY/WX    TMP DP  RH WIND       PRES   REMARKS
DEFIANCE       SUNNY     25   9  50 NW8       30.45S WCI  16
FINDLAY        MOSUNNY   23   8  52 NW9       30.42S WCI  13
TOLEDO EXPRESS MOSUNNY   23   8  52 N9        30.44S WCI  13
TOLEDO EXEC    SUNNY     24   7  48 NW9       30.45S WCI  14
LIMA           PTSUNNY   24  10  55 N10       30.42S WCI  14
$$

OHZ009>014-019>023-028>033-038-089-302100-
   NORTHEAST OHIO

CITY           SKY/WX    TMP DP  RH WIND       PRES   REMARKS
CLE-HOPKINS    CLOUDY    18   7  62 NW16G28   30.43R WCI   3
CLE-LAKEFRONT  CLOUDY    18   8  65 NW20G26   30.41R WCI   2
CUY CO. ARPT   CLOUDY    18  10  73 NW12G21   30.38R WCI   5
LORAIN-ELYRIA  PTSUNNY   17   6  62 N15       30.42R WCI   2
ASHTABULA      LGT SNOW  16  12  84 NW13      30.33R FOG     WCI   2
AKRON-CANTON   LGT SNOW  16   8  71 NW16G23   30.34R BLWGSNOWWCI   1
WOOSTER        NOT AVBL
MANSFIELD      CLOUDY    17   7  64 NW13      30.37R WCI   4
YOUNGSTOWN     LGT SNOW  15   8  73 NW15      30.30R VSB 1   WCI   0
$$

OHZ042-051>053-060>062-070>072-077>081-302100-
  SOUTHWEST OHIO

CITY           SKY/WX    TMP DP  RH WIND       PRES   REMARKS
CINC-COVINGTON PTSUNNY   30  14  51 VRB7      30.43F WCI  23
CINC-LUNKEN    PTSUNNY   30  14  51 N13G18    30.47F WCI  20
HAMILTON       FLURRIES  28  15  58 NW12      30.46F WCI  18
DAYTON         NOT AVBL
WRIGHT-PAT AFB MOSUNNY   24  13  62 NW12      30.43S WCI  13
DAYTON GENERAL MOSUNNY   25  12  58 NW7       30.42S WCI  17
WILMINGTON     PTSUNNY   25  13  60 NW13      30.41S WCI  14
$$

OHZ036-037-039>041-045>050-054>059-063>069-073>076-082>088-302100-
  CENTRAL AND SOUTHEAST OHIO

CITY           SKY/WX    TMP DP  RH WIND       PRES   REMARKS
COLUMBUS       MOSUNNY   23   9  55 NW15      30.41R WCI  10
OSU AIRPORT    CLOUDY    23  10  57 NW15G22   30.41R WCI  10
BOLTON FIELD   PTSUNNY   25  10  54 NW14      30.42R WCI  13
RICKENBACK AFB NOT AVBL
NEWARK         PTSUNNY   22   9  57 NW9       30.40R WCI  12
MARION         MOSUNNY   21   8  57 N15       30.41R WCI   8
LANCASTER      PTSUNNY   25  11  55 NW14      30.41R WCI  13
ZANESVILLE     CLOUDY    22   8  55 NW15      30.37R WCI   9
NEW PHILLY     CLOUDY    19   8  62 NW12      30.39R WCI   7
$$



USA.gov is the U.S. government's official web portal to all federal, state and local government web resources and services.